contact:dominique.lefevre@mio.osupytheas.fr, maurice.libes@osupytheas.fr, didier.mallarino@osupytheas.fr
Project:EMSO http://www.emso-fr.org/EMSO-France
Depth: 2436.0 m
Title:EMSO Ligure Ouest : Data MII capteur MICROCAT
DateTime_Computer,Latitude,Longitude,Temperature,Conductivity,Pressure,DateTime_Instrument
DateTime_Computer,Latitude,Longitude,degC,S m-1,dbar,DateTime_Instrument
2022-03-29T00:02:03Z,42.805,6.029,13.3021,4.60053,2470.171,2022-3-29T02:03:40Z
2022-03-29T00:05:06Z,42.805,6.029,13.3018,4.60053,2470.143,2022-3-29T02:06:43Z
2022-03-29T00:08:09Z,42.805,6.029,13.3020,4.60052,2470.171,2022-3-29T02:09:46Z
2022-03-29T00:11:12Z,42.805,6.029,13.3021,4.60052,2470.194,2022-3-29T02:12:49Z
2022-03-29T00:14:15Z,42.805,6.029,13.3014,4.60050,2470.203,2022-3-29T02:15:52Z
2022-03-29T00:17:18Z,42.805,6.029,13.3015,4.60054,2470.18,2022-3-29T02:18:55Z
2022-03-29T00:20:22Z,42.805,6.029,13.3015,4.60051,2470.194,2022-3-29T02:21:59Z
2022-03-29T00:23:25Z,42.805,6.029,13.3015,4.60049,2470.18,2022-3-29T02:25:02Z
2022-03-29T00:26:28Z,42.805,6.029,13.3018,4.60052,2470.203,2022-3-29T02:28:05Z
2022-03-29T00:29:31Z,42.805,6.029,13.3021,4.60051,2470.203,2022-3-29T02:31:08Z
2022-03-29T00:32:34Z,42.805,6.029,13.3019,4.60052,2470.203,2022-3-29T02:34:11Z
2022-03-29T00:35:37Z,42.805,6.029,13.3021,4.60052,2470.217,2022-3-29T02:37:14Z
2022-03-29T00:38:40Z,42.805,6.029,13.3021,4.60053,2470.18,2022-3-29T02:40:17Z
2022-03-29T00:41:43Z,42.805,6.029,13.3019,4.60056,2470.217,2022-3-29T02:43:20Z
2022-03-29T00:44:47Z,42.805,6.029,13.3018,4.60053,2470.203,2022-3-29T02:46:24Z
2022-03-29T00:47:50Z,42.805,6.029,13.3016,4.60053,2470.203,2022-3-29T02:49:27Z
2022-03-29T00:50:53Z,42.805,6.029,13.3019,4.60052,2470.203,2022-3-29T02:52:30Z
2022-03-29T00:53:56Z,42.805,6.029,13.3019,4.60052,2470.227,2022-3-29T02:55:33Z
2022-03-29T00:56:59Z,42.805,6.029,13.3016,4.60052,2470.203,2022-3-29T02:58:36Z
2022-03-29T01:00:02Z,42.805,6.029,13.3019,4.60052,2470.156,2022-3-29T03:01:39Z
2022-03-29T01:03:05Z,42.805,6.029,13.3017,4.60052,2470.18,2022-3-29T03:04:42Z
2022-03-29T01:06:08Z,42.805,6.029,13.3020,4.60054,2470.203,2022-3-29T03:07:45Z
2022-03-29T01:09:12Z,42.805,6.029,13.3020,4.60052,2470.194,2022-3-29T03:10:49Z
2022-03-29T01:12:15Z,42.805,6.029,13.3016,4.60054,2470.24,2022-3-29T03:13:52Z
2022-03-29T01:15:18Z,42.805,6.029,13.3021,4.60056,2470.227,2022-3-29T03:16:55Z
2022-03-29T01:18:21Z,42.805,6.029,13.3019,4.60055,2470.24,2022-3-29T03:19:58Z
2022-03-29T01:21:24Z,42.805,6.029,13.3021,4.60055,2470.227,2022-3-29T03:23:01Z
2022-03-29T01:24:27Z,42.805,6.029,13.3019,4.60056,2470.203,2022-3-29T03:26:04Z
2022-03-29T01:27:30Z,42.805,6.029,13.3020,4.60056,2470.203,2022-3-29T03:29:07Z
2022-03-29T01:30:33Z,42.805,6.029,13.3023,4.60057,2470.217,2022-3-29T03:32:10Z
2022-03-29T01:33:37Z,42.805,6.029,13.3022,4.60059,2470.25,2022-3-29T03:35:14Z
2022-03-29T01:36:40Z,42.805,6.029,13.3024,4.60057,2470.203,2022-3-29T03:38:17Z
2022-03-29T01:39:43Z,42.805,6.029,13.3021,4.60057,2470.227,2022-3-29T03:41:20Z
2022-03-29T01:42:46Z,42.805,6.029,13.3023,4.60057,2470.217,2022-3-29T03:44:23Z
2022-03-29T01:45:49Z,42.805,6.029,13.3025,4.60057,2470.217,2022-3-29T03:47:26Z
2022-03-29T01:48:52Z,42.805,6.029,13.3026,4.60059,2470.24,2022-3-29T03:50:29Z
2022-03-29T01:51:55Z,42.805,6.029,13.3020,4.60060,2470.264,2022-3-29T03:53:32Z
2022-03-29T01:54:58Z,42.805,6.029,13.3024,4.60060,2470.227,2022-3-29T03:56:35Z
2022-03-29T01:58:02Z,42.805,6.029,13.3027,4.60062,2470.264,2022-3-29T03:59:38Z
2022-03-29T02:01:05Z,42.805,6.029,13.3031,4.60066,2470.227,2022-3-29T04:02:42Z
2022-03-29T02:04:08Z,42.805,6.029,13.3026,4.60064,2470.25,2022-3-29T04:05:45Z
2022-03-29T02:07:11Z,42.805,6.029,13.3028,4.60065,2470.273,2022-3-29T04:08:48Z
2022-03-29T02:10:14Z,42.805,6.029,13.3027,4.60064,2470.25,2022-3-29T04:11:51Z
2022-03-29T02:13:17Z,42.805,6.029,13.3033,4.60067,2470.264,2022-3-29T04:14:54Z
2022-03-29T02:16:20Z,42.805,6.029,13.3031,4.60067,2470.264,2022-3-29T04:17:57Z
2022-03-29T02:19:23Z,42.805,6.029,13.3026,4.60064,2470.287,2022-3-29T04:21:00Z
2022-03-29T02:22:26Z,42.805,6.029,13.3029,4.60064,2470.25,2022-3-29T04:24:03Z
2022-03-29T02:25:30Z,42.805,6.029,13.3029,4.60064,2470.273,2022-3-29T04:27:07Z
2022-03-29T02:28:33Z,42.805,6.029,13.3029,4.60067,2470.287,2022-3-29T04:30:10Z
2022-03-29T02:31:36Z,42.805,6.029,13.3028,4.60067,2470.227,2022-3-29T04:33:13Z
2022-03-29T02:34:39Z,42.805,6.029,13.3029,4.60065,2470.264,2022-3-29T04:36:16Z
2022-03-29T02:37:42Z,42.805,6.029,13.3029,4.60067,2470.264,2022-3-29T04:39:19Z
2022-03-29T02:40:45Z,42.805,6.029,13.3031,4.60066,2470.264,2022-3-29T04:42:22Z
2022-03-29T02:43:48Z,42.805,6.029,13.3029,4.60067,2470.273,2022-3-29T04:45:25Z
2022-03-29T02:46:51Z,42.805,6.029,13.3027,4.60066,2470.287,2022-3-29T04:48:28Z
2022-03-29T02:49:55Z,42.805,6.029,13.3028,4.60068,2470.31,2022-3-29T04:51:32Z
2022-03-29T02:52:58Z,42.805,6.029,13.3029,4.60067,2470.273,2022-3-29T04:54:35Z
2022-03-29T02:56:01Z,42.805,6.029,13.3036,4.60069,2470.297,2022-3-29T04:57:38Z
2022-03-29T02:59:04Z,42.805,6.029,13.3030,4.60069,2470.273,2022-3-29T05:00:41Z
2022-03-29T03:02:07Z,42.805,6.029,13.3029,4.60069,2470.32,2022-3-29T05:03:44Z
2022-03-29T03:05:10Z,42.805,6.029,13.3034,4.60069,2470.297,2022-3-29T05:06:47Z
2022-03-29T03:08:13Z,42.805,6.029,13.3034,4.60069,2470.32,2022-3-29T05:09:50Z
2022-03-29T03:11:16Z,42.805,6.029,13.3032,4.60070,2470.297,2022-3-29T05:12:53Z
2022-03-29T03:14:19Z,42.805,6.029,13.3032,4.60070,2470.31,2022-3-29T05:15:56Z
2022-03-29T03:17:23Z,42.805,6.029,13.3033,4.60072,2470.31,2022-3-29T05:19:00Z
2022-03-29T03:20:26Z,42.805,6.029,13.3039,4.60071,2470.31,2022-3-29T05:22:03Z
2022-03-29T03:23:29Z,42.805,6.029,13.3033,4.60072,2470.343,2022-3-29T05:25:06Z
2022-03-29T03:26:32Z,42.805,6.029,13.3031,4.60074,2470.31,2022-3-29T05:28:09Z
2022-03-29T03:29:35Z,42.805,6.029,13.3034,4.60072,2470.32,2022-3-29T05:31:12Z
2022-03-29T03:32:38Z,42.805,6.029,13.3034,4.60072,2470.32,2022-3-29T05:34:15Z
2022-03-29T03:35:41Z,42.805,6.029,13.3032,4.60071,2470.343,2022-3-29T05:37:18Z
2022-03-29T03:38:44Z,42.805,6.029,13.3033,4.60071,2470.32,2022-3-29T05:40:21Z
2022-03-29T03:41:48Z,42.805,6.029,13.3036,4.60072,2470.38,2022-3-29T05:43:25Z
2022-03-29T03:44:51Z,42.805,6.029,13.3032,4.60071,2470.357,2022-3-29T05:46:28Z
2022-03-29T03:47:54Z,42.805,6.029,13.3035,4.60072,2470.343,2022-3-29T05:49:31Z
2022-03-29T03:50:57Z,42.805,6.029,13.3032,4.60074,2470.334,2022-3-29T05:52:34Z
2022-03-29T03:54:00Z,42.805,6.029,13.3032,4.60072,2470.343,2022-3-29T05:55:37Z
2022-03-29T03:57:03Z,42.805,6.029,13.3032,4.60073,2470.343,2022-3-29T05:58:40Z
2022-03-29T04:00:06Z,42.805,6.029,13.3035,4.60072,2470.343,2022-3-29T06:01:43Z
2022-03-29T04:03:09Z,42.805,6.029,13.3033,4.60073,2470.38,2022-3-29T06:04:46Z
2022-03-29T04:06:13Z,42.805,6.029,13.3036,4.60073,2470.343,2022-3-29T06:07:50Z
2022-03-29T04:09:16Z,42.805,6.029,13.3041,4.60073,2470.366,2022-3-29T06:10:53Z
2022-03-29T04:12:19Z,42.805,6.029,13.3036,4.60074,2470.366,2022-3-29T06:13:56Z
2022-03-29T04:15:22Z,42.805,6.029,13.3035,4.60074,2470.38,2022-3-29T06:16:59Z
2022-03-29T04:18:25Z,42.805,6.029,13.3034,4.60073,2470.38,2022-3-29T06:20:02Z
2022-03-29T04:21:28Z,42.805,6.029,13.3036,4.60075,2470.404,2022-3-29T06:23:05Z
2022-03-29T04:24:31Z,42.805,6.029,13.3036,4.60074,2470.404,2022-3-29T06:26:08Z
2022-03-29T04:27:34Z,42.805,6.029,13.3034,4.60074,2470.413,2022-3-29T06:29:11Z
2022-03-29T04:30:38Z,42.805,6.029,13.3035,4.60074,2470.404,2022-3-29T06:32:15Z
2022-03-29T04:33:41Z,42.805,6.029,13.3036,4.60074,2470.343,2022-3-29T06:35:18Z
2022-03-29T04:36:44Z,42.805,6.029,13.3036,4.60074,2470.366,2022-3-29T06:38:21Z
2022-03-29T04:39:47Z,42.805,6.029,13.3036,4.60074,2470.366,2022-3-29T06:41:24Z
2022-03-29T04:42:50Z,42.805,6.029,13.3036,4.60074,2470.39,2022-3-29T06:44:27Z
2022-03-29T04:45:53Z,42.805,6.029,13.3037,4.60074,2470.357,2022-3-29T06:47:30Z
2022-03-29T04:48:56Z,42.805,6.029,13.3033,4.60074,2470.366,2022-3-29T06:50:33Z
2022-03-29T04:51:59Z,42.805,6.029,13.3034,4.60074,2470.39,2022-3-29T06:53:36Z
2022-03-29T04:55:03Z,42.805,6.029,13.3034,4.60074,2470.366,2022-3-29T06:56:40Z
2022-03-29T04:58:06Z,42.805,6.029,13.3039,4.60074,2470.38,2022-3-29T06:59:43Z
2022-03-29T05:01:09Z,42.805,6.029,13.3036,4.60074,2470.413,2022-3-29T07:02:46Z
2022-03-29T05:04:12Z,42.805,6.029,13.3032,4.60074,2470.404,2022-3-29T07:05:49Z
2022-03-29T05:07:15Z,42.805,6.029,13.3034,4.60076,2470.413,2022-3-29T07:08:52Z
2022-03-29T05:10:18Z,42.805,6.029,13.3033,4.60073,2470.427,2022-3-29T07:11:55Z
2022-03-29T05:13:21Z,42.805,6.029,13.3034,4.60073,2470.404,2022-3-29T07:14:58Z
2022-03-29T05:16:24Z,42.805,6.029,13.3033,4.60073,2470.427,2022-3-29T07:18:01Z
2022-03-29T05:19:27Z,42.805,6.029,13.3036,4.60076,2470.39,2022-3-29T07:21:04Z
2022-03-29T05:22:31Z,42.805,6.029,13.3037,4.60074,2470.413,2022-3-29T07:24:08Z
2022-03-29T05:25:34Z,42.805,6.029,13.3034,4.60074,2470.427,2022-3-29T07:27:11Z
2022-03-29T05:28:37Z,42.805,6.029,13.3036,4.60074,2470.427,2022-3-29T07:30:14Z
2022-03-29T05:31:40Z,42.805,6.029,13.3034,4.60074,2470.437,2022-3-29T07:33:17Z
2022-03-29T05:34:43Z,42.805,6.029,13.3038,4.60074,2470.38,2022-3-29T07:36:20Z
2022-03-29T05:37:46Z,42.805,6.029,13.3034,4.60074,2470.39,2022-3-29T07:39:23Z
2022-03-29T05:40:49Z,42.805,6.029,13.3036,4.60073,2470.474,2022-3-29T07:42:26Z
2022-03-29T05:43:52Z,42.805,6.029,13.3036,4.60074,2470.427,2022-3-29T07:45:29Z
2022-03-29T05:46:56Z,42.805,6.029,13.3031,4.60073,2470.413,2022-3-29T07:48:33Z
2022-03-29T05:49:59Z,42.805,6.029,13.3036,4.60078,2470.39,2022-3-29T07:51:36Z
2022-03-29T05:53:02Z,42.805,6.029,13.3033,4.60072,2470.413,2022-3-29T07:54:39Z
2022-03-29T05:56:05Z,42.805,6.029,13.3034,4.60074,2470.427,2022-3-29T07:57:42Z
2022-03-29T05:59:08Z,42.805,6.029,13.3034,4.60074,2470.413,2022-3-29T08:00:45Z
2022-03-29T06:02:11Z,42.805,6.029,13.3036,4.60075,2470.413,2022-3-29T08:03:48Z
2022-03-29T06:05:14Z,42.805,6.029,13.3035,4.60073,2470.437,2022-3-29T08:06:51Z
2022-03-29T06:08:17Z,42.805,6.029,13.3037,4.60074,2470.413,2022-3-29T08:09:54Z
2022-03-29T06:11:21Z,42.805,6.029,13.3037,4.60072,2470.413,2022-3-29T08:12:58Z
2022-03-29T06:14:24Z,42.805,6.029,13.3034,4.60073,2470.437,2022-3-29T08:16:01Z
2022-03-29T06:17:27Z,42.805,6.029,13.3036,4.60075,2470.39,2022-3-29T08:19:04Z
2022-03-29T06:20:30Z,42.805,6.029,13.3036,4.60074,2470.437,2022-3-29T08:22:07Z
2022-03-29T06:23:33Z,42.805,6.029,13.3036,4.60073,2470.413,2022-3-29T08:25:10Z
2022-03-29T06:26:36Z,42.805,6.029,13.3033,4.60074,2470.413,2022-3-29T08:28:13Z
2022-03-29T06:29:39Z,42.805,6.029,13.3034,4.60075,2470.413,2022-3-29T08:31:16Z
2022-03-29T06:32:42Z,42.805,6.029,13.3033,4.60072,2470.413,2022-3-29T08:34:19Z
2022-03-29T06:35:46Z,42.805,6.029,13.3031,4.60076,2470.39,2022-3-29T08:37:23Z
2022-03-29T06:38:49Z,42.805,6.029,13.3036,4.60072,2470.404,2022-3-29T08:40:26Z
2022-03-29T06:41:52Z,42.805,6.029,13.3036,4.60073,2470.413,2022-3-29T08:43:29Z
2022-03-29T06:44:55Z,42.805,6.029,13.3036,4.60073,2470.413,2022-3-29T08:46:32Z
2022-03-29T06:47:58Z,42.805,6.029,13.3034,4.60072,2470.404,2022-3-29T08:49:35Z
2022-03-29T06:51:01Z,42.805,6.029,13.3034,4.60074,2470.39,2022-3-29T08:52:38Z
2022-03-29T06:54:04Z,42.805,6.029,13.3031,4.60074,2470.404,2022-3-29T08:55:41Z
2022-03-29T06:57:07Z,42.805,6.029,13.3035,4.60074,2470.39,2022-3-29T08:58:44Z
2022-03-29T07:00:11Z,42.805,6.029,13.3034,4.60075,2470.39,2022-3-29T09:01:48Z
2022-03-29T07:03:14Z,42.805,6.029,13.3034,4.60073,2470.413,2022-3-29T09:04:51Z
2022-03-29T07:06:17Z,42.805,6.029,13.3034,4.60075,2470.404,2022-3-29T09:07:54Z
2022-03-29T07:09:20Z,42.805,6.029,13.3035,4.60074,2470.39,2022-3-29T09:10:57Z
2022-03-29T07:12:23Z,42.805,6.029,13.3034,4.60074,2470.427,2022-3-29T09:14:00Z
2022-03-29T07:15:26Z,42.805,6.029,13.3036,4.60072,2470.413,2022-3-29T09:17:03Z
2022-03-29T07:18:29Z,42.805,6.029,13.3035,4.60072,2470.39,2022-3-29T09:20:06Z
2022-03-29T07:21:32Z,42.805,6.029,13.3031,4.60072,2470.39,2022-3-29T09:23:09Z
2022-03-29T07:24:35Z,42.805,6.029,13.3031,4.60072,2470.427,2022-3-29T09:26:12Z
2022-03-29T07:27:39Z,42.805,6.029,13.3032,4.60072,2470.39,2022-3-29T09:29:16Z
2022-03-29T07:30:42Z,42.805,6.029,13.3034,4.60072,2470.413,2022-3-29T09:32:19Z
2022-03-29T07:33:45Z,42.805,6.029,13.3031,4.60070,2470.39,2022-3-29T09:35:22Z
2022-03-29T07:36:48Z,42.805,6.029,13.3034,4.60070,2470.413,2022-3-29T09:38:25Z
2022-03-29T07:39:51Z,42.805,6.029,13.3031,4.60072,2470.39,2022-3-29T09:41:28Z
2022-03-29T07:42:54Z,42.805,6.029,13.3033,4.60072,2470.366,2022-3-29T09:44:31Z
2022-03-29T07:45:57Z,42.805,6.029,13.3034,4.60076,2470.38,2022-3-29T09:47:34Z
2022-03-29T07:49:00Z,42.805,6.029,13.3035,4.60071,2470.376,2022-3-29T09:50:37Z
2022-03-29T07:52:04Z,42.805,6.029,13.3034,4.60071,2470.39,2022-3-29T09:53:41Z
2022-03-29T07:55:07Z,42.805,6.029,13.3034,4.60075,2470.404,2022-3-29T09:56:44Z
2022-03-29T07:58:10Z,42.805,6.029,13.3031,4.60070,2470.39,2022-3-29T09:59:47Z
2022-03-29T08:01:13Z,42.805,6.029,13.3033,4.60070,2470.404,2022-3-29T10:02:50Z
2022-03-29T08:04:16Z,42.805,6.029,13.3030,4.60072,2470.366,2022-3-29T10:05:53Z
2022-03-29T08:07:19Z,42.805,6.029,13.3031,4.60070,2470.366,2022-3-29T10:08:56Z
2022-03-29T08:10:22Z,42.805,6.029,13.3034,4.60073,2470.39,2022-3-29T10:11:59Z
2022-03-29T08:13:25Z,42.805,6.029,13.3033,4.60069,2470.343,2022-3-29T10:15:02Z
2022-03-29T08:16:29Z,42.805,6.029,13.3029,4.60069,2470.366,2022-3-29T10:18:06Z
2022-03-29T08:19:32Z,42.805,6.029,13.3031,4.60069,2470.366,2022-3-29T10:21:09Z
2022-03-29T08:22:35Z,42.805,6.029,13.3033,4.60069,2470.366,2022-3-29T10:24:12Z
2022-03-29T08:25:38Z,42.805,6.029,13.3031,4.60068,2470.366,2022-3-29T10:27:15Z
2022-03-29T08:28:41Z,42.805,6.029,13.3029,4.60068,2470.404,2022-3-29T10:30:18Z
2022-03-29T08:31:44Z,42.805,6.029,13.3035,4.60068,2470.38,2022-3-29T10:33:21Z
2022-03-29T08:34:47Z,42.805,6.029,13.3031,4.60069,2470.38,2022-3-29T10:36:24Z
2022-03-29T08:37:50Z,42.805,6.029,13.3032,4.60072,2470.366,2022-3-29T10:39:27Z
2022-03-29T08:40:54Z,42.805,6.029,13.3028,4.60070,2470.366,2022-3-29T10:42:31Z
2022-03-29T08:43:57Z,42.805,6.029,13.3034,4.60068,2470.366,2022-3-29T10:45:34Z
2022-03-29T08:47:00Z,42.805,6.029,13.3028,4.60068,2470.32,2022-3-29T10:48:37Z
2022-03-29T08:50:03Z,42.805,6.029,13.3034,4.60069,2470.366,2022-3-29T10:51:40Z
2022-03-29T08:53:06Z,42.805,6.029,13.3034,4.60069,2470.366,2022-3-29T10:54:43Z
2022-03-29T08:56:09Z,42.805,6.029,13.3029,4.60069,2470.343,2022-3-29T10:57:46Z
2022-03-29T08:59:12Z,42.805,6.029,13.3029,4.60069,2470.357,2022-3-29T11:00:49Z
2022-03-29T09:02:15Z,42.805,6.029,13.3031,4.60067,2470.357,2022-3-29T11:03:52Z
2022-03-29T09:05:19Z,42.805,6.029,13.3027,4.60067,2470.357,2022-3-29T11:06:56Z
2022-03-29T09:08:22Z,42.805,6.029,13.3030,4.60067,2470.366,2022-3-29T11:09:59Z
2022-03-29T09:11:25Z,42.805,6.029,13.3031,4.60067,2470.334,2022-3-29T11:13:02Z
2022-03-29T09:14:28Z,42.805,6.029,13.3029,4.60068,2470.366,2022-3-29T11:16:05Z
2022-03-29T09:17:31Z,42.805,6.029,13.3033,4.60069,2470.32,2022-3-29T11:19:08Z
2022-03-29T09:20:34Z,42.805,6.029,13.3031,4.60067,2470.343,2022-3-29T11:22:11Z
2022-03-29T09:23:37Z,42.805,6.029,13.3031,4.60069,2470.32,2022-3-29T11:25:14Z
2022-03-29T09:26:40Z,42.805,6.029,13.3028,4.60067,2470.334,2022-3-29T11:28:17Z
2022-03-29T09:29:44Z,42.805,6.029,13.3032,4.60068,2470.334,2022-3-29T11:31:21Z
2022-03-29T09:32:47Z,42.805,6.029,13.3030,4.60068,2470.33,2022-3-29T11:34:24Z
2022-03-29T09:35:50Z,42.805,6.029,13.3029,4.60069,2470.357,2022-3-29T11:37:27Z
2022-03-29T09:38:53Z,42.805,6.029,13.3029,4.60067,2470.343,2022-3-29T11:40:30Z
2022-03-29T09:41:56Z,42.805,6.029,13.3031,4.60066,2470.334,2022-3-29T11:43:33Z
2022-03-29T09:44:59Z,42.805,6.029,13.3027,4.60068,2470.334,2022-3-29T11:46:36Z
2022-03-29T09:48:02Z,42.805,6.029,13.3029,4.60067,2470.32,2022-3-29T11:49:39Z
2022-03-29T09:51:06Z,42.805,6.029,13.3028,4.60067,2470.357,2022-3-29T11:52:43Z
2022-03-29T09:54:09Z,42.805,6.029,13.3029,4.60067,2470.334,2022-3-29T11:55:46Z
2022-03-29T09:57:12Z,42.805,6.029,13.3026,4.60069,2470.334,2022-3-29T11:58:49Z
2022-03-29T10:00:15Z,42.805,6.029,13.3022,4.60067,2470.334,2022-3-29T12:01:52Z
2022-03-29T10:03:18Z,42.805,6.029,13.3031,4.60067,2470.334,2022-3-29T12:04:55Z
2022-03-29T10:06:21Z,42.805,6.029,13.3032,4.60067,2470.32,2022-3-29T12:07:58Z
2022-03-29T10:09:24Z,42.805,6.029,13.3032,4.60067,2470.32,2022-3-29T12:11:01Z
2022-03-29T10:12:27Z,42.805,6.029,13.3028,4.60068,2470.31,2022-3-29T12:14:04Z
2022-03-29T10:15:30Z,42.805,6.029,13.3026,4.60067,2470.32,2022-3-29T12:17:08Z
2022-03-29T10:18:34Z,42.805,6.029,13.3029,4.60066,2470.273,2022-3-29T12:20:11Z
2022-03-29T10:21:37Z,42.805,6.029,13.3031,4.60067,2470.297,2022-3-29T12:23:14Z
2022-03-29T10:24:40Z,42.805,6.029,13.3029,4.60067,2470.297,2022-3-29T12:26:17Z
2022-03-29T10:27:43Z,42.805,6.029,13.3031,4.60067,2470.297,2022-3-29T12:29:20Z
2022-03-29T10:30:46Z,42.805,6.029,13.3029,4.60069,2470.287,2022-3-29T12:32:23Z
2022-03-29T10:33:49Z,42.805,6.029,13.3031,4.60067,2470.273,2022-3-29T12:35:26Z
2022-03-29T10:36:52Z,42.805,6.029,13.3029,4.60066,2470.287,2022-3-29T12:38:29Z
2022-03-29T10:39:56Z,42.805,6.029,13.3026,4.60066,2470.264,2022-3-29T12:41:33Z
2022-03-29T10:42:59Z,42.805,6.029,13.3029,4.60065,2470.297,2022-3-29T12:44:36Z
2022-03-29T10:46:02Z,42.805,6.029,13.3031,4.60064,2470.273,2022-3-29T12:47:39Z
2022-03-29T10:49:05Z,42.805,6.029,13.3030,4.60065,2470.264,2022-3-29T12:50:42Z
2022-03-29T10:52:08Z,42.805,6.029,13.3027,4.60068,2470.273,2022-3-29T12:53:45Z
2022-03-29T10:55:11Z,42.805,6.029,13.3028,4.60066,2470.287,2022-3-29T12:56:48Z
2022-03-29T10:58:14Z,42.805,6.029,13.3030,4.60065,2470.273,2022-3-29T12:59:51Z
2022-03-29T11:01:17Z,42.805,6.029,13.3029,4.60065,2470.264,2022-3-29T13:02:54Z
2022-03-29T11:04:21Z,42.805,6.029,13.3029,4.60066,2470.273,2022-3-29T13:05:58Z
2022-03-29T11:07:24Z,42.805,6.029,13.3031,4.60064,2470.264,2022-3-29T13:09:01Z
2022-03-29T11:10:27Z,42.805,6.029,13.3029,4.60065,2470.31,2022-3-29T13:12:04Z
2022-03-29T11:13:30Z,42.805,6.029,13.3025,4.60067,2470.287,2022-3-29T13:15:07Z
2022-03-29T11:16:33Z,42.805,6.029,13.3028,4.60066,2470.264,2022-3-29T13:18:10Z
2022-03-29T11:19:36Z,42.805,6.029,13.3027,4.60064,2470.25,2022-3-29T13:21:13Z
2022-03-29T11:22:39Z,42.805,6.029,13.3028,4.60066,2470.264,2022-3-29T13:24:16Z
2022-03-29T11:25:42Z,42.805,6.029,13.3025,4.60064,2470.25,2022-3-29T13:27:19Z
2022-03-29T11:28:46Z,42.805,6.029,13.3029,4.60064,2470.273,2022-3-29T13:30:23Z
2022-03-29T11:31:49Z,42.805,6.029,13.3029,4.60064,2470.273,2022-3-29T13:33:26Z
2022-03-29T11:34:52Z,42.805,6.029,13.3027,4.60065,2470.287,2022-3-29T13:36:29Z
2022-03-29T11:37:55Z,42.805,6.029,13.3029,4.60064,2470.227,2022-3-29T13:39:32Z
2022-03-29T11:40:58Z,42.805,6.029,13.3027,4.60066,2470.227,2022-3-29T13:42:35Z
2022-03-29T11:44:01Z,42.805,6.029,13.3027,4.60064,2470.227,2022-3-29T13:45:38Z
2022-03-29T11:47:04Z,42.805,6.029,13.3030,4.60064,2470.25,2022-3-29T13:48:41Z
2022-03-29T11:50:07Z,42.805,6.029,13.3028,4.60064,2470.25,2022-3-29T13:51:44Z
2022-03-29T11:53:11Z,42.805,6.029,13.3030,4.60067,2470.273,2022-3-29T13:54:48Z
2022-03-29T11:56:14Z,42.805,6.029,13.3030,4.60064,2470.264,2022-3-29T13:57:51Z
2022-03-29T11:59:17Z,42.805,6.029,13.3029,4.60064,2470.25,2022-3-29T14:00:54Z
2022-03-29T12:02:20Z,42.805,6.029,13.3029,4.60066,2470.273,2022-3-29T14:03:57Z
2022-03-29T12:05:23Z,42.805,6.029,13.3024,4.60067,2470.24,2022-3-29T14:07:00Z
2022-03-29T12:08:26Z,42.805,6.029,13.3026,4.60064,2470.25,2022-3-29T14:10:03Z
2022-03-29T12:11:29Z,42.805,6.029,13.3029,4.60068,2470.297,2022-3-29T14:13:06Z
2022-03-29T12:14:32Z,42.805,6.029,13.3031,4.60067,2470.25,2022-3-29T14:16:09Z
2022-03-29T12:17:36Z,42.805,6.029,13.3027,4.60067,2470.25,2022-3-29T14:19:13Z
2022-03-29T12:20:39Z,42.805,6.029,13.3027,4.60064,2470.25,2022-3-29T14:22:16Z
2022-03-29T12:23:42Z,42.805,6.029,13.3031,4.60064,2470.264,2022-3-29T14:25:19Z
2022-03-29T12:26:45Z,42.805,6.029,13.3024,4.60064,2470.264,2022-3-29T14:28:22Z
2022-03-29T12:29:48Z,42.805,6.029,13.3028,4.60064,2470.264,2022-3-29T14:31:25Z
2022-03-29T12:32:51Z,42.805,6.029,13.3034,4.60068,2470.273,2022-3-29T14:34:28Z
2022-03-29T12:35:54Z,42.805,6.029,13.3026,4.60065,2470.264,2022-3-29T14:37:31Z
2022-03-29T12:38:57Z,42.805,6.029,13.3025,4.60065,2470.264,2022-3-29T14:40:34Z
2022-03-29T12:42:01Z,42.805,6.029,13.3030,4.60065,2470.227,2022-3-29T14:43:38Z
2022-03-29T12:45:04Z,42.805,6.029,13.3030,4.60064,2470.25,2022-3-29T14:46:41Z
2022-03-29T12:48:07Z,42.805,6.029,13.3027,4.60065,2470.227,2022-3-29T14:49:44Z
2022-03-29T12:51:10Z,42.805,6.029,13.3029,4.60064,2470.264,2022-3-29T14:52:47Z
2022-03-29T12:54:13Z,42.805,6.029,13.3029,4.60064,2470.227,2022-3-29T14:55:50Z
2022-03-29T12:57:16Z,42.805,6.029,13.3026,4.60064,2470.25,2022-3-29T14:58:53Z
2022-03-29T13:00:19Z,42.805,6.029,13.3029,4.60068,2470.25,2022-3-29T15:01:56Z
2022-03-29T13:03:22Z,42.805,6.029,13.3030,4.60066,2470.227,2022-3-29T15:04:59Z
2022-03-29T13:06:26Z,42.805,6.029,13.3030,4.60065,2470.227,2022-3-29T15:08:03Z
2022-03-29T13:09:29Z,42.805,6.029,13.3028,4.60064,2470.236,2022-3-29T15:11:06Z
2022-03-29T13:12:32Z,42.805,6.029,13.3031,4.60066,2470.227,2022-3-29T15:14:09Z
2022-03-29T13:15:35Z,42.805,6.029,13.3029,4.60065,2470.273,2022-3-29T15:17:12Z
2022-03-29T13:18:38Z,42.805,6.029,13.3028,4.60064,2470.264,2022-3-29T15:20:15Z
2022-03-29T13:21:41Z,42.805,6.029,13.3029,4.60064,2470.203,2022-3-29T15:23:18Z
2022-03-29T13:24:44Z,42.805,6.029,13.3026,4.60064,2470.264,2022-3-29T15:26:21Z
2022-03-29T13:27:47Z,42.805,6.029,13.3029,4.60066,2470.264,2022-3-29T15:29:24Z
2022-03-29T13:30:51Z,42.805,6.029,13.3030,4.60064,2470.25,2022-3-29T15:32:28Z
2022-03-29T13:33:54Z,42.805,6.029,13.3031,4.60065,2470.25,2022-3-29T15:35:31Z
2022-03-29T13:36:57Z,42.805,6.029,13.3029,4.60067,2470.25,2022-3-29T15:38:34Z
2022-03-29T13:40:00Z,42.805,6.029,13.3028,4.60064,2470.273,2022-3-29T15:41:37Z
2022-03-29T13:43:03Z,42.805,6.029,13.3029,4.60064,2470.264,2022-3-29T15:44:40Z
2022-03-29T13:46:06Z,42.805,6.029,13.3026,4.60064,2470.273,2022-3-29T15:47:43Z
2022-03-29T13:49:09Z,42.805,6.029,13.3030,4.60065,2470.264,2022-3-29T15:50:46Z
2022-03-29T13:52:12Z,42.805,6.029,13.3030,4.60064,2470.25,2022-3-29T15:53:49Z
2022-03-29T13:55:16Z,42.805,6.029,13.3031,4.60065,2470.273,2022-3-29T15:56:53Z
2022-03-29T13:58:19Z,42.805,6.029,13.3029,4.60064,2470.25,2022-3-29T15:59:56Z
2022-03-29T14:01:22Z,42.805,6.029,13.3029,4.60065,2470.25,2022-3-29T16:02:59Z
2022-03-29T14:04:25Z,42.805,6.029,13.3031,4.60064,2470.273,2022-3-29T16:06:02Z
2022-03-29T14:07:28Z,42.805,6.029,13.3029,4.60064,2470.31,2022-3-29T16:09:05Z
2022-03-29T14:10:31Z,42.805,6.029,13.3028,4.60064,2470.273,2022-3-29T16:12:08Z
2022-03-29T14:13:34Z,42.805,6.029,13.3027,4.60067,2470.273,2022-3-29T16:15:11Z
2022-03-29T14:16:37Z,42.805,6.029,13.3029,4.60063,2470.273,2022-3-29T16:18:14Z
2022-03-29T14:19:41Z,42.805,6.029,13.3031,4.60062,2470.334,2022-3-29T16:21:18Z
2022-03-29T14:22:44Z,42.805,6.029,13.3026,4.60063,2470.287,2022-3-29T16:24:21Z
2022-03-29T14:25:47Z,42.805,6.029,13.3026,4.60063,2470.287,2022-3-29T16:27:24Z
2022-03-29T14:28:50Z,42.805,6.029,13.3022,4.60063,2470.297,2022-3-29T16:30:27Z
2022-03-29T14:31:53Z,42.805,6.029,13.3026,4.60064,2470.287,2022-3-29T16:33:30Z
2022-03-29T14:34:56Z,42.805,6.029,13.3026,4.60064,2470.273,2022-3-29T16:36:33Z
2022-03-29T14:37:59Z,42.805,6.029,13.3024,4.60062,2470.273,2022-3-29T16:39:36Z
2022-03-29T14:41:02Z,42.805,6.029,13.3024,4.60062,2470.31,2022-3-29T16:42:39Z
2022-03-29T14:44:06Z,42.805,6.029,13.3026,4.60062,2470.297,2022-3-29T16:45:43Z
2022-03-29T14:47:09Z,42.805,6.029,13.3022,4.60062,2470.273,2022-3-29T16:48:46Z
2022-03-29T14:50:12Z,42.805,6.029,13.3021,4.60064,2470.297,2022-3-29T16:51:49Z
2022-03-29T14:53:15Z,42.805,6.029,13.3025,4.60064,2470.343,2022-3-29T16:54:52Z
2022-03-29T14:56:18Z,42.805,6.029,13.3025,4.60065,2470.297,2022-3-29T16:57:55Z
2022-03-29T14:59:21Z,42.805,6.029,13.3025,4.60062,2470.32,2022-3-29T17:00:58Z
2022-03-29T15:02:24Z,42.805,6.029,13.3025,4.60062,2470.31,2022-3-29T17:04:01Z
2022-03-29T15:05:27Z,42.805,6.029,13.3026,4.60062,2470.31,2022-3-29T17:07:04Z
2022-03-29T15:08:31Z,42.805,6.029,13.3025,4.60062,2470.31,2022-3-29T17:10:08Z
2022-03-29T15:11:34Z,42.805,6.029,13.3029,4.60062,2470.32,2022-3-29T17:13:11Z
2022-03-29T15:14:37Z,42.805,6.029,13.3027,4.60067,2470.33,2022-3-29T17:16:14Z